2021-015Q (47713 NORAD) Tracking and Keplerian Element Data

This shows tracking and keplerian element data for the satellite.

Feedback or suggestion? Click here.




ElementValue
Catalog47713
Name2021-015Q
Epoch Orbit241
Epoch Day75.82391603
Epoch Year2021
RAAN150.989
Inclination97.459
Eccentricity0.000957
Argument of Perigee230.9058
Mean Anonmoly129.1327
Mean Motion15.21216182
Decay Rate5.045E-05
L11 47713U 21015Q 21075.82391603 .00005045 00000-0 22897-3 0 9993
L22 47713 97.4590 150.9890 0009570 230.9058 129.1327 15.21216182 2419

Live tracking and technical data element details for 2021-015Q (NORAD 47713). 2021-015Q can be tracked NOW for your location showing map with azimuth and elevation plus other details from your city location.

Track the satellite on the map from your city or location and see movement details for azimuth, elevation, latitude, longitude, range, height, and movement on the map or in text.







IsCatalogInMostPopularTable: catalog: 47713, numindb: 8
Update: records affected: 1



GetName: 47713 2021-015Q

Hit Count: updated at: Sat, 10 Apr 2021 18:52:28 GMT